London-Corbin, KY

6:08 PM EDT on July 15, 2019 (GMT -0400)
London-Corbin / McKee

Weather History for KLOZ - May, 2019

Change the Weather History Date:

Thursday, May 2, 2019

  Actual Average Record
Temperature  
Mean Temperature 71 °F 61 °F  
Max Temperature 80 °F 73 °F 88 °F (1959)
Min Temperature 61 °F 49 °F 28 °F (1963)
Degree Days  
Heating Degree Days 0 5  
Month to date heating degree days 0 10  
Since 1 July heating degree days 3980 4111  
Cooling Degree Days 6 1  
Month to date cooling degree days 13 2  
Year to date cooling degree days 25 28  
Growing Degree Days 20 (Base 50)    
Moisture  
Dew Point 64 °F    
Average Humidity 81    
Maximum Humidity 100    
Minimum Humidity 62    
Precipitation  
Precipitation 1.54 in 0.15 in 1.60 in (2010)
Month to date precipitation 1.54 0.30  
Sea Level Pressure  
Sea Level Pressure 30.12 in    
Wind  
Wind Speed 3 mph (West)    
Max Wind Speed 36 mph    
Max Gust Speed 49 mph    
Visibility 8 miles    
Events Fog , Rain , Thunderstorm    
T = Trace of Precipitation, MM = Missing Value Source: NWS Daily Summary

Daily Weather History Graph

Daily Weather History Graph

Search for Another Location

Airport or City:

Astronomy

May. 02, 2019 Rise Set
Actual Time 6:40 AM EDT 8:26 PM EDT
Civil Twilight 6:13 AM EDT 8:54 PM EDT
Nautical Twilight 5:39 AM EDT 9:28 PM EDT
Astronomical Twilight 5:03 AM EDT 10:04 PM EDT
Moon 5:47 AM EDT (5/2) 6:17 PM EDT (5/2)
Length of Visible Light 14h 41m
Length of Day
13h 45m
Waning Crescent, 5% of the Moon is Illuminated
May 2
Waning Crescent
May 4
New
May 11
First Quarter
May 18
Full
May 26
Last Quarter

Hourly Weather History & Observations

Time (EDT) Temp. Heat Index Dew Point Humidity Pressure Visibility Wind Dir Wind Speed Gust Speed Precip Events Conditions
12:53 AM 69.1 °F - 59.0 °F 70% 30.12 in 8.0 mi Calm Calm - N/A   Scattered Clouds
1:53 AM 70.0 °F - 59.0 °F 68% 30.12 in 3.0 mi South 3.5 mph - N/A   Haze
2:53 AM 66.9 °F - 60.1 °F 79% 30.12 in 10.0 mi Calm Calm - N/A   Scattered Clouds
4:53 AM 63.0 °F - 60.1 °F 90% 30.13 in 10.0 mi Calm Calm - N/A   Mostly Cloudy
5:53 AM 63.0 °F - 61.0 °F 93% 30.14 in 10.0 mi Calm Calm - N/A   Mostly Cloudy
6:53 AM 61.0 °F - 61.0 °F 100% 30.14 in 9.0 mi Calm Calm - N/A   Mostly Cloudy
7:53 AM 66.0 °F - 63.0 °F 90% 30.14 in 10.0 mi Calm Calm - N/A   Clear
8:53 AM 72.0 °F - 64.0 °F 76% 30.14 in 4.0 mi Variable 3.5 mph - N/A   Haze
9:53 AM 75.0 °F - 64.0 °F 69% 30.14 in 10.0 mi SSW 9.2 mph - N/A   Clear
10:53 AM 77.0 °F - 64.0 °F 64% 30.15 in 10.0 mi SW 9.2 mph - N/A   Mostly Cloudy
11:53 AM 79.0 °F - 64.0 °F 60% 30.15 in 10.0 mi SSW 9.2 mph - N/A   Mostly Cloudy
12:16 PM 80.1 °F 81.9 °F 64.9 °F 60% 30.18 in 10.0 mi SSW 9.2 mph - N/A Thunderstorm Scattered Clouds
12:38 PM 71.1 °F - 63.0 °F 75% 30.18 in 2.5 mi NW 21.9 mph 40.3 mph 0.06 in Rain , Thunderstorm Thunderstorms and Rain
12:41 PM 68.0 °F - 60.1 °F 76% 30.19 in 0.8 mi WNW 32.2 mph 48.3 mph 0.20 in Rain , Thunderstorm Heavy Thunderstorms and Rain
12:53 PM 68.0 °F - 63.0 °F 84% 30.14 in 2.0 mi Variable 3.5 mph 18.4 mph 0.32 in Rain , Thunderstorm Light Thunderstorms and Rain
1:01 PM 69.1 °F - 64.9 °F 87% 30.17 in 10.0 mi NE 3.5 mph - 0.00 in Rain Light Rain
1:15 PM 73.9 °F - 66.9 °F 79% 30.16 in 10.0 mi Calm Calm - 0.00 in Thunderstorm Scattered Clouds
1:30 PM 77.0 °F - 66.0 °F 69% 30.15 in 10.0 mi Calm Calm - 0.00 in   Clear
1:53 PM 79.0 °F - 66.9 °F 66% 30.09 in 10.0 mi North 3.5 mph - 0.00 in   Clear
2:53 PM 75.9 °F - 69.1 °F 79% 30.08 in 10.0 mi SW 3.5 mph - 0.02 in   Mostly Cloudy
3:53 PM 77.0 °F - 66.9 °F 71% 30.06 in 10.0 mi West 10.4 mph - 0.00 in   Scattered Clouds
4:15 PM 75.9 °F - 64.9 °F 69% 30.09 in 10.0 mi SSW 3.5 mph - N/A Thunderstorm Partly Cloudy
4:44 PM 75.9 °F - 66.0 °F 71% 30.09 in 10.0 mi SSW 4.6 mph - N/A   Mostly Cloudy
4:53 PM 77.0 °F - 66.0 °F 69% 30.05 in 10.0 mi Calm Calm - N/A Thunderstorm Mostly Cloudy
5:05 PM 75.9 °F - 66.0 °F 71% 30.08 in 10.0 mi Calm Calm - N/A Thunderstorm Thunderstorm
5:22 PM 71.1 °F - 64.9 °F 81% 30.14 in 1.0 mi WSW 34.5 mph 46.0 mph 0.20 in Rain , Thunderstorm Light Thunderstorms and Rain
5:26 PM 66.0 °F - 64.9 °F 96% 30.17 in 0.5 mi West 28.8 mph 46.0 mph 0.61 in Fog , Rain , Thunderstorm Heavy Thunderstorms and Rain
5:30 PM 64.0 °F - 63.0 °F 96% 30.14 in 0.2 mi WNW 23.0 mph 46.0 mph 0.81 in Fog , Rain , Thunderstorm Heavy Thunderstorms and Rain
5:35 PM 64.0 °F - 63.0 °F 96% 30.14 in 0.5 mi WNW 11.5 mph 40.3 mph 1.01 in Fog , Rain , Thunderstorm Heavy Thunderstorms and Rain
5:40 PM 64.0 °F - 63.0 °F 96% 30.14 in 1.0 mi WNW 17.3 mph 26.5 mph 1.10 in Rain , Thunderstorm Heavy Thunderstorms and Rain
5:51 PM 64.4 °F - 62.6 °F 94% 30.12 in 2.0 mi NW 11.5 mph 25.3 mph 1.18 in Rain , Thunderstorm Rain
5:53 PM 64.9 °F - 63.0 °F 93% 30.10 in 3.0 mi NNW 10.4 mph 25.3 mph 1.18 in Rain , Thunderstorm Light Rain
6:07 PM 64.9 °F - 63.0 °F 93% 30.13 in 10.0 mi NNW 6.9 mph - 0.00 in Rain , Thunderstorm Light Rain
6:20 PM 64.9 °F - 63.0 °F 93% 30.12 in 10.0 mi Variable 4.6 mph - 0.00 in   Mostly Cloudy
6:34 PM 64.0 °F - 64.0 °F 100% 30.11 in 10.0 mi Calm Calm - 0.00 in Thunderstorm Mostly Cloudy
6:49 PM 64.4 °F - 62.6 °F 94% 30.11 in 10.0 mi East 3.5 mph - 0.00 in   Scattered Clouds
6:53 PM 64.0 °F - 63.0 °F 96% 30.09 in 10.0 mi ESE 4.6 mph - 0.00 in   Scattered Clouds
7:53 PM 64.9 °F - 63.0 °F 93% 30.09 in 10.0 mi Calm Calm - N/A   Mostly Cloudy
8:53 PM 64.0 °F - 64.0 °F 100% 30.08 in 10.0 mi Calm Calm - 0.00 in   Mostly Cloudy
9:53 PM 63.0 °F - 63.0 °F 100% 30.10 in 10.0 mi Calm Calm - N/A   Mostly Cloudy
10:53 PM 63.0 °F - 63.0 °F 100% 30.07 in 10.0 mi Calm Calm - 0.02 in Rain Light Rain
11:53 PM 62.1 °F - 62.1 °F 100% 30.06 in 10.0 mi Calm Calm - 0.00 in   Scattered Clouds